[[[{"header":{"parameterUnit":"kt","parameterCategory":2,"dx":1,"dy":1,"la1":30.253999710083008,"la2":30.299108505249023,"lo1":-89.0895004272461,"lo2":-89.04439544677734,"nx":28,"ny":28,"refTime":"2022-09-30T21:00:00:Z","depth":0,"parameterNumber":1,"parameterNumberName":"U-component_of_WINDS"},"data":[0.2485,0.2453,0.2457,0.2421,0.2419,0.2395,0.2388,0.2378,0.2372,0.2344,0.2329,0.2328,0.2322,0.2304,0.2287,0.2287,0.228,0.2267,0.2269,0.2324,0.2332,0.2339,0.2347,0.2266,0.2266,0.2212,0.2211,0.2211,0.253,0.2527,0.2509,0.2493,0.2478,0.2494,0.2482,0.2468,0.2446,0.2437,0.2422,0.2397,0.2378,0.2375,0.2357,0.2342,0.2347,0.2337,0.2337,0.2336,0.2395,0.2404,0.2333,0.2333,0.2333,0.2333,0.2333,0.2333,0.2611,0.2591,0.2584,0.2564,0.2557,0.2546,0.2528,0.2527,0.2509,0.249,0.2497,0.2471,0.2462,0.244,0.2433,0.2414,0.2425,0.2414,0.2411,0.2408,0.2405,0.2483,0.241,0.2411,0.2411,0.2411,0.2411,0,0.2671,0.2676,0.2657,0.2641,0.2626,0.2613,0.2602,0.259,0.2598,0.2582,0.256,0.2547,0.2522,0.25,0.2483,0.2477,0.2489,0.249,0.2483,0.2479,0.2479,0.2478,0.2575,0.2491,0.2492,0.2493,0.2493,0.2493,0.2753,0.2729,0.2722,0.2709,0.2703,0.2681,0.2669,0.2677,0.2664,0.265,0.2631,0.261,0.2593,0.2556,0.2553,0.2534,0.2539,0.2507,0.2536,0.2535,0.2538,0.2539,0.2537,0.2501,0.25,0.2499,0.2498,0,0.28,0.2803,0.2766,0.276,0.2758,0.2732,0.2727,0.2706,0.2707,0.2679,0.2673,0.2674,0.265,0.2653,0.2627,0.2629,0.2587,0.2592,0.2591,0.2592,0.2564,0.2566,0.2471,0.2459,0.2544,0.2543,0.2543,0,0.287,0.2838,0.2845,0.2823,0.2788,0.2796,0.2761,0.2757,0.2748,0.2726,0.274,0.2719,0.2726,0.2705,0.2708,0.2674,0.2669,0.2668,0.2669,0.2666,0.2666,0.2657,0.266,0.2672,0.2672,0.2672,0.2673,0,0.2941,0.2906,0.2871,0.2863,0.2851,0.2835,0.2829,0.2819,0.2805,0.2789,0.2781,0.2761,0.2749,0.2734,0.2737,0.2757,0.2696,0.2723,0.2695,0.2695,0.2679,0.268,0.2597,0.2673,0.2674,0.2674,0.2674,0,0.2998,0.2982,0.2929,0.292,0.291,0.2886,0.2867,0.2847,0.2835,0.2835,0.2822,0.283,0.28,0.2828,0.2787,0.2811,0.2799,0.2796,0.2794,0.279,0.2819,0.2771,0.2693,0.2685,0.2789,0.279,0.2791,0,0.3078,0.3026,0.3032,0.2981,0.2957,0.2974,0.2948,0.2936,0.2934,0.2913,0.2911,0.2886,0.2906,0.2898,0.2878,0.2874,0.2842,0.2878,0.2847,0.2846,0.285,0.2778,0.2765,0.271,0.2803,0.2802,0.2801,0,0.314,0.3126,0.3116,0.3107,0.3092,0.3071,0.3041,0.3018,0.3004,0.2988,0.2963,0.2928,0.2942,0.2928,0.2932,0.2911,0.2864,0.2928,0.2928,0.2916,0.2809,0.2798,0.2788,0.2872,0.287,0.2869,0.2811,0,0.3226,0.3199,0.3173,0.3151,0.3135,0.3103,0.3104,0.3088,0.3094,0.3091,0.3053,0.3041,0.3016,0.3006,0.301,0.296,0.2969,0.2983,0.3008,0.2961,0.2941,0.2934,0.3037,0.3037,0.3038,0.3039,0,0,0.3301,0.3262,0.3268,0.3238,0.3224,0.3241,0.3206,0.3195,0.3171,0.3162,0.3176,0.3124,0.3113,0.3066,0.3052,0.3041,0.3032,0.3048,0.2983,0.2977,0.2971,0.2951,0.2943,0.304,0.304,0.304,0.304,0,0.3332,0.3322,0.3287,0.3276,0.326,0.3258,0.325,0.3236,0.3232,0.3194,0.3207,0.3184,0.314,0.3128,0.3115,0.3054,0.3064,0.3047,0.3014,0.2989,0.2982,0.2976,0.2955,0.2947,0.3042,0.3042,0.3042,0,0.3393,0.3383,0.3366,0.3336,0.3324,0.3298,0.3325,0.3295,0.3275,0.3292,0.3253,0.3246,0.3229,0.3184,0.3164,0.3175,0.3093,0.3118,0.3114,0.3111,0.3088,0.3079,0.3072,0.317,0.317,0.3171,0,0,0.3419,0.3393,0.3383,0.3342,0.3334,0.3331,0.3316,0.332,0.3304,0.3297,0.3287,0.3271,0.3246,0.3229,0.3206,0.3156,0.3153,0.3134,0.3128,0.3123,0.3118,0.3092,0.3084,0.3173,0.3173,0.3173,0,0,0.3431,0.3418,0.3426,0.3378,0.3363,0.335,0.3324,0.3334,0.3312,0.3316,0.3319,0.3314,0.3272,0.3264,0.3287,0.3214,0.3239,0.3233,0.3221,0.3213,0.3207,0.3209,0.3311,0,0,0,0,0,0.3461,0.342,0.3428,0.3419,0.3379,0.3346,0.3341,0.3343,0.3361,0.3341,0.3335,0.3346,0.3278,0.3298,0.329,0.3263,0.3195,0.3191,0.3187,0.3159,0.3151,0.3144,0,0,0,0,0,0,0.3458,0.3448,0.3429,0.3413,0.3404,0.3347,0.3378,0.3378,0.3363,0.3366,0.3347,0.3345,0.3346,0.3303,0.3295,0.327,0.3314,0.3193,0.319,0.3187,0.3156,0.315,0.3144,0,0,0,0,0,0.3456,0.3448,0.3383,0.3414,0.3406,0.3399,0.338,0.338,0.3368,0.3357,0.3356,0.3371,0.3345,0.3339,0.3298,0.3273,0.3319,0.3316,0.3191,0.3188,0.3186,0.3153,0,0,0,0,0,0,0.3454,0.3447,0.3382,0.3379,0.3429,0.3402,0.3398,0.3381,0.3361,0.3359,0.3382,0.3384,0.3344,0.3339,0.3334,0.3274,0.3323,0.3321,0.3319,0.3189,0.3187,0.3185,0,0,0,0,0,0,0.3452,0.3445,0.3381,0.34,0.34,0.3405,0.3401,0.3367,0.336,0.3386,0.3388,0.3383,0.3351,0.3339,0.3336,0.3281,0.3327,0.3324,0.3322,0.3321,0.3187,0.3186,0,0,0,0,0,0,0.3449,0.3443,0.3401,0.34,0.34,0.3375,0.3374,0.3333,0.3378,0.3387,0.3382,0.3384,0.3351,0.3347,0.3336,0.3284,0.3282,0.3327,0.3325,0.3323,0.3323,0,0,0,0,0,0,0,0.3447,0.3483,0.3395,0.3401,0.3401,0.3358,0.3358,0.3357,0.3378,0.338,0.3381,0.3383,0.3342,0.3339,0.3336,0.3285,0,0,0.3327,0.3326,0,0,0,0,0,0,0,0,0.3485,0.3483,0.3395,0.3395,0.3394,0.3358,0.3358,0.3357,0.3378,0.338,0.3381,0.3382,0.3342,0.3339,0.3337,0,0,0,0,0,0,0,0,0,0,0,0,0,0,0,0.3395,0.3395,0,0.3358,0.3358,0.3357,0.3379,0.338,0.3381,0.3382,0.3341,0.3339,0.3337,0,0,0,0,0,0,0,0,0,0,0,0,0,0,0,0,0,0,0,0,0,0,0,0,0,0,0,0,0,0,0,0,0,0,0,0,0,0,0,0,0,0,0,0,0,0,0,0,0,0,0,0,0,0,0,0,0,0,0,0,0,0,0,0,0,0,0,0,0]}],[{"header":{"parameterUnit":"kt","parameterCategory":2,"dx":1,"dy":1,"la1":30.253999710083008,"la2":30.299108505249023,"lo1":-89.0895004272461,"lo2":-89.04439544677734,"nx":28,"ny":28,"refTime":"2022-09-30T21:00:00:Z","depth":0,"parameterNumber":2,"parameterNumberName":"V-component_of_WINDS"},"data":[-11.4811,-11.5029,-11.5034,-11.5283,-11.5328,-11.5497,-11.5557,-11.5635,-11.5697,-11.5894,-11.6007,-11.6028,-11.6086,-11.6216,-11.6334,-11.6339,-11.6388,-11.6464,-11.6457,-11.6121,-11.6074,-11.603,-11.598,-11.6476,-11.6476,-11.6803,-11.6806,-11.6808,-11.4566,-11.4615,-11.4749,-11.488,-11.4993,-11.4924,-11.502,-11.5117,-11.5268,-11.5345,-11.5456,-11.5627,-11.5761,-11.5792,-11.5919,-11.6015,-11.5986,-11.6049,-11.604,-11.6049,-11.5692,-11.5639,-11.607,-11.607,-11.607,-11.607,-11.607,-11.607,-11.412,-11.4251,-11.4334,-11.4478,-11.4544,-11.4631,-11.4753,-11.4779,-11.4905,-11.5043,-11.5018,-11.5186,-11.5259,-11.541,-11.5459,-11.5586,-11.5515,-11.5582,-11.5599,-11.5615,-11.5635,-11.5161,-11.5608,-11.5606,-11.5605,-11.5604,-11.5603,0,-11.3794,-11.3789,-11.3917,-11.4047,-11.4151,-11.425,-11.434,-11.4416,-11.4397,-11.4502,-11.4652,-11.4738,-11.4905,-11.5042,-11.516,-11.5196,-11.5127,-11.512,-11.5166,-11.518,-11.5178,-11.5179,-11.4594,-11.5106,-11.5101,-11.5098,-11.5096,-11.5094,-11.3343,-11.3495,-11.3581,-11.367,-11.372,-11.3864,-11.3948,-11.3921,-11.4011,-11.4114,-11.4228,-11.4367,-11.4476,-11.4711,-11.473,-11.4853,-11.4819,-11.5015,-11.4837,-11.4846,-11.482,-11.481,-11.4824,-11.5049,-11.5055,-11.5059,-11.5063,0,-11.3088,-11.3092,-11.3327,-11.3396,-11.3417,-11.3576,-11.3632,-11.3758,-11.3766,-11.394,-11.3979,-11.399,-11.4135,-11.4123,-11.4284,-11.4272,-11.4526,-11.4492,-11.4501,-11.4493,-11.4665,-11.4648,-11.5229,-11.5303,-11.4791,-11.4796,-11.48,0,-11.2702,-11.2902,-11.2895,-11.3032,-11.3252,-11.322,-11.3437,-11.3465,-11.3529,-11.3665,-11.3588,-11.3717,-11.368,-11.3807,-11.379,-11.3995,-11.4026,-11.4028,-11.402,-11.4034,-11.4034,-11.4076,-11.4051,-11.4,-11.3997,-11.3995,-11.3992,0,-11.2301,-11.2531,-11.2753,-11.2805,-11.2896,-11.3,-11.3041,-11.3111,-11.3193,-11.3296,-11.3348,-11.347,-11.3536,-11.3629,-11.3606,-11.3486,-11.3858,-11.3687,-11.3859,-11.386,-11.394,-11.3935,-11.4455,-11.3989,-11.3988,-11.3987,-11.3986,0,-11.1988,-11.21,-11.2422,-11.2494,-11.2555,-11.27,-11.282,-11.2941,-11.302,-11.302,-11.31,-11.3045,-11.3225,-11.3057,-11.3303,-11.3153,-11.3221,-11.324,-11.3252,-11.3264,-11.3075,-11.3368,-11.3868,-11.3918,-11.3279,-11.3274,-11.3268,0,-11.1527,-11.1852,-11.1827,-11.2132,-11.228,-11.2184,-11.2343,-11.2416,-11.2429,-11.2553,-11.2564,-11.2705,-11.2577,-11.2619,-11.2743,-11.2759,-11.2954,-11.2732,-11.2904,-11.291,-11.2885,-11.3346,-11.3422,-11.3761,-11.3193,-11.3201,-11.3207,0,-11.1168,-11.1279,-11.1336,-11.1393,-11.1487,-11.1609,-11.1793,-11.1927,-11.2011,-11.2101,-11.2251,-11.2448,-11.2359,-11.2428,-11.2394,-11.2524,-11.2821,-11.241,-11.241,-11.2482,-11.3154,-11.3226,-11.3283,-11.2769,-11.2778,-11.2785,-11.3147,0,-11.0693,-11.0856,-11.1009,-11.1138,-11.1231,-11.1422,-11.1412,-11.151,-11.147,-11.1478,-11.1699,-11.1753,-11.1884,-11.1945,-11.1906,-11.2208,-11.2154,-11.2057,-11.1889,-11.2192,-11.231,-11.2359,-11.1714,-11.1709,-11.1705,-11.1701,0,0,-11.0248,-11.0482,-11.0447,-11.0625,-11.0702,-11.0597,-11.0801,-11.0861,-11.0987,-11.104,-11.0947,-11.1232,-11.1279,-11.1547,-11.1641,-11.1694,-11.1746,-11.164,-11.2049,-11.2087,-11.2123,-11.225,-11.2301,-11.1694,-11.1692,-11.1691,-11.1689,0,-11.0072,-11.0131,-11.0335,-11.0398,-11.0489,-11.0489,-11.0539,-11.0608,-11.0623,-11.084,-11.0746,-11.0876,-11.1105,-11.1166,-11.1227,-11.1609,-11.1527,-11.165,-11.1859,-11.2007,-11.2051,-11.209,-11.2224,-11.2273,-11.1679,-11.168,-11.168,0,-10.9716,-10.9771,-10.9869,-11.004,-11.0097,-11.0251,-11.0075,-11.0244,-11.0357,-11.0227,-11.0443,-11.0471,-11.0551,-11.0807,-11.0921,-11.0839,-11.133,-11.1172,-11.1199,-11.121,-11.1351,-11.1405,-11.1452,-11.0824,-11.0821,-11.0819,0,0,-10.9564,-10.9716,-10.9763,-11.0,-11.0044,-11.0046,-11.0126,-11.0094,-11.0172,-11.0203,-11.0236,-11.0312,-11.0443,-11.053,-11.0653,-11.0937,-11.0948,-11.1068,-11.1108,-11.1141,-11.117,-11.1321,-11.1374,-11.0808,-11.0807,-11.0807,0,0,-10.949,-10.9556,-10.9503,-10.9778,-10.9857,-10.9916,-11.0059,-10.9994,-11.0104,-11.008,-11.0029,-11.0047,-11.0286,-11.0315,-11.0171,-11.0592,-11.0427,-11.0461,-11.0564,-11.0615,-11.0654,-11.0641,-10.9992,0,0,0,0,0,-10.9304,-10.9548,-10.9499,-10.9544,-10.9756,-10.9944,-10.997,-10.9937,-10.9821,-10.9936,-10.9952,-10.9861,-11.0227,-11.0098,-11.014,-11.0301,-11.0666,-11.0691,-11.0715,-11.0914,-11.0967,-11.1012,0,0,0,0,0,0,-10.9321,-10.9376,-10.9492,-10.9563,-10.961,-10.9935,-10.9731,-10.9729,-10.9808,-10.9788,-10.9861,-10.9863,-10.9835,-11.0073,-11.0112,-11.0265,-10.9979,-11.0676,-11.0697,-11.0716,-11.0932,-11.0976,-11.1013,0,0,0,0,0,-10.9335,-10.9379,-10.973,-10.9559,-10.96,-10.9614,-10.9722,-10.9718,-10.9778,-10.9804,-10.9804,-10.9746,-10.984,-10.987,-11.0096,-11.0249,-10.9952,-10.9967,-11.069,-11.0707,-11.0722,-11.0954,0,0,0,0,0,0,-10.9345,-10.9375,-10.9737,-10.9748,-10.9464,-10.9594,-10.9614,-10.9709,-10.9788,-10.9791,-10.9685,-10.9668,-10.9847,-10.9869,-10.9893,-11.0245,-10.993,-10.9945,-10.9954,-11.0703,-11.0716,-11.0727,0,0,0,0,0,0,-10.9351,-10.9385,-10.9742,-10.9625,-10.9622,-10.9577,-10.9595,-10.978,-10.979,-10.9664,-10.9652,-10.9677,-10.9809,-10.987,-10.9887,-11.0178,-10.9913,-10.9927,-10.9937,-10.9943,-11.0713,-11.0724,0,0,0,0,0,0,-10.9364,-10.9394,-10.9622,-10.962,-10.9617,-10.9738,-10.974,-10.9958,-10.9695,-10.9662,-10.967,-10.9658,-10.9813,-10.983,-10.9885,-11.0169,-11.0176,-10.9913,-10.9923,-10.993,-10.9935,0,0,0,0,0,0,0,-10.9376,-10.9188,-10.9672,-10.9616,-10.9613,-10.985,-10.9853,-10.9856,-10.9693,-10.9683,-10.9673,-10.9663,-10.9832,-10.9847,-10.9863,-11.0161,0,0,-10.9912,-10.9919,0,0,0,0,0,0,0,0,-10.9175,-10.9185,-10.9672,-10.9675,-10.9677,-10.9851,-10.9853,-10.9856,-10.9691,-10.9683,-10.9675,-10.9667,-10.9836,-10.9848,-10.9861,0,0,0,0,0,0,0,0,0,0,0,0,0,0,0,-10.9672,-10.9674,0,-10.9851,-10.9853,-10.9855,-10.969,-10.9683,-10.9676,-10.967,-10.9839,-10.985,-10.986,0,0,0,0,0,0,0,0,0,0,0,0,0,0,0,0,0,0,0,0,0,0,0,0,0,0,0,0,0,0,0,0,0,0,0,0,0,0,0,0,0,0,0,0,0,0,0,0,0,0,0,0,0,0,0,0,0,0,0,0,0,0,0,0,0,0,0,0,0]}]]]